Flag for Canada Weather past 2 weeks in Thompson, Manitoba, Canada

Now
39 °F

Passing clouds.


Feels Like: 39 °F
Forecast: 44 / 76 °F
Wind: No wind

Location: Thompson

Current Time: May 24, 2015 at 1:15:16 AM

Latest Report: May 24, 2015 at 12:00 AM


Visibility: 15 mi

Pressure: 30.11 "Hg

Humidity: 70%

Dew point: 30 °F

Location of ThompsonLocation

Historic Weather in Thompson — Graph

°F

Thompson temperature yesterday

Maximum temperature yesterday: 61 °F (at 6:00 PM)
Minimum temperature yesterday: 34 °F (at 7:00 AM)
Average temperature yesterday: 48 °F

Past Weeks' High & Low Weather Summary

 TemperatureHumidityPressure
High79 °F (May 22, 6:00 PM)93% (May 9, 2:00 AM)30.58 "Hg (May 9, 2:00 AM)
Low16 °F (May 9, 5:00 AM)15% (May 18, 6:00 PM)29.76 "Hg (May 16, 11:00 AM)
Average45 °F52%30.22 "Hg
* Reported Midnight between May 8 and May 9 — Midnight between May 23 and May 24, Thompson, Weather by CustomWeather, © 2015

Note: Actual official high and low records may vary slightly from our data, if they occured in-between our weather recording intervals... More about our weather records

Advertising

Thompson weather history for previous 24 hours

 ConditionsComfort  
Time TempWeatherWind HumidityBarometerVisibility
12:00 AM
Sun, May 24
39 °FPassing clouds.No wind70%30.11 "Hg15 mi
11:00 PM
Sat, May 23
41 °FPassing clouds.No wind66%30.12 "Hg15 mi
10:00 PM48 °FPassing clouds.No wind50%30.13 "Hg15 mi
9:00 PM57 °FScattered clouds.6 mph27%30.14 "Hg15 mi
8:00 PM61 °FScattered clouds.8 mph23%30.14 "Hg15 mi
7:00 PM61 °FScattered clouds.8 mph22%30.16 "Hg15 mi
6:00 PM61 °FScattered clouds.5 mph22%30.17 "Hg15 mi
5:00 PM59 °FScattered clouds.3 mph23%30.19 "Hg15 mi
4:00 PM59 °FScattered clouds.7 mph25%30.20 "Hg15 mi
3:00 PM57 °FPassing clouds.6 mph29%30.21 "Hg15 mi
2:00 PM54 °FPassing clouds.5 mph33%30.22 "Hg15 mi
1:00 PM52 °FPassing clouds.8 mph35%30.24 "Hg15 mi
12:00 PM48 °FScattered clouds.5 mph40%30.24 "Hg15 mi
11:00 AM46 °FPartly sunny.8 mph46%30.24 "Hg15 mi
10:00 AM41 °FPartly sunny.9 mph57%30.24 "Hg15 mi
9:00 AM37 °FPassing clouds.8 mph65%30.23 "Hg15 mi
8:00 AM36 °FPartly sunny.9 mph75%30.22 "Hg15 mi
7:00 AM34 °FPartly sunny.10 mph87%30.20 "Hg15 mi
6:00 AM36 °FPassing clouds.15 mph87%30.17 "Hg15 mi
5:00 AM37 °FPassing clouds.13 mph87%30.14 "Hg15 mi
4:00 AM37 °FPartly cloudy.10 mph87%30.12 "Hg15 mi
3:00 AM41 °FPassing clouds.8 mph81%30.11 "Hg15 mi
2:00 AM43 °FPassing clouds.13 mph76%30.09 "Hg15 mi
1:00 AM46 °FPassing clouds.13 mph71%30.07 "Hg15 mi
Weather by CustomWeather, © 2015

See weather overviewHow to use our weather pages